• In Belarus
  • List of Countries
  • For 7 days
  • Water Temperature
  • Satellite Maps
  • Weather Map
  • Weather Widgets
  • user-avatar
    Login

    Hourly Weather Uige

    Today, 23 May, Wednesday

    Time Temperature Precipitation Wind Pressure Humidity
    00:00 +20°C° 0 mm 0 mps 692 mmHg 78%
    01:00 +19°C° 0 mm 0 mps 692 mmHg 79%
    02:00 +19°C° 0 mm 0 mps 692 mmHg 80%
    03:00 +19°C° 0 mm 0 mps 691 mmHg 81%
    04:00 +20°C° 0 mm 1 mps 691 mmHg 82%
    05:00 +20°C° 0 mm 1 mps 692 mmHg 82%
    06:00 +21°C° 0 mm 1 mps 692 mmHg 81%
    07:00 +22°C° 0 mm 1 mps 693 mmHg 86%
    08:00 +24°C° 0 mm 1 mps 693 mmHg 77%
    09:00 +26°C° 0 mm 1 mps 693 mmHg 68%
    10:00 +28°C° 0 mm 1 mps 694 mmHg 59%
    11:00 +30°C° 0 mm 1 mps 693 mmHg 53%
    12:00 +31°C° 0 mm 1 mps 693 mmHg 47%
    13:00 +32°C° 0 mm 2 mps 693 mmHg 42%
    14:00 +31°C° 0 mm 1 mps 692 mmHg 43%
    15:00 +31°C° 0 mm 1 mps 692 mmHg 45%
    16:00 +31°C° 0 mm 1 mps 691 mmHg 47%
    17:00 +29°C° 0 mm 1 mps 691 mmHg 54%
    18:00 +26°C° 0 mm 1 mps 691 mmHg 61%
    19:00 +22°C° 0 mm 0 mps 691 mmHg 69%
    20:00 +21°C° 0 mm 0 mps 692 mmHg 71%
    21:00 +21°C° 0 mm 0 mps 692 mmHg 72%
    22:00 +20°C° 0 mm 0 mps 692 mmHg 74%
    23:00 +20°C° 0 mm 0 mps 692 mmHg 76%

    Tomorrow, 24 May, Thursday

    Time Temperature Precipitation Wind Pressure Humidity
    00:00 +19°C° 0 mm 0 mps 692 mmHg 77%
    01:00 +19°C° 0 mm 0 mps 692 mmHg 79%
    02:00 +19°C° 0 mm 0 mps 692 mmHg 82%
    03:00 +18°C° 0 mm 0 mps 692 mmHg 84%
    04:00 +20°C° 0 mm 1 mps 692 mmHg 86%
    05:00 +20°C° 0 mm 1 mps 692 mmHg 86%
    06:00 +20°C° 0 mm 1 mps 692 mmHg 85%
    07:00 +21°C° 0 mm 1 mps 692 mmHg 84%
    08:00 +23°C° 0 mm 1 mps 693 mmHg 73%
    09:00 +26°C° 0 mm 1 mps 693 mmHg 63%
    10:00 +29°C° 0 mm 1 mps 694 mmHg 53%
    11:00 +30°C° 0 mm 1 mps 693 mmHg 48%
    12:00 +31°C° 0 mm 1 mps 693 mmHg 43%
    13:00 +32°C° 0 mm 1 mps 692 mmHg 39%
    14:00 +32°C° 0 mm 1 mps 692 mmHg 40%
    15:00 +32°C° 0 mm 1 mps 691 mmHg 41%
    16:00 +32°C° 0 mm 1 mps 691 mmHg 43%
    17:00 +29°C° 0 mm 1 mps 691 mmHg 50%
    18:00 +25°C° 0 mm 0 mps 690 mmHg 57%
    19:00 +22°C° 0 mm 0 mps 690 mmHg 65%
    20:00 +22°C° 0 mm 0 mps 691 mmHg 68%
    21:00 +21°C° 0 mm 0 mps 691 mmHg 71%
    22:00 +21°C° 0 mm 0 mps 691 mmHg 74%
    23:00 +20°C° 0 mm 0 mps 691 mmHg 76%

    Day after tomorrow, 25 May, Friday

    Time Temperature Precipitation Wind Pressure Humidity
    00:00 +22°C° 0 mm 1 mps 691 mmHg 79%
    01:00 +21°C° 0 mm 1 mps 691 mmHg 81%
    02:00 +21°C° 0 mm 1 mps 690 mmHg 83%
    03:00 +20°C° 0 mm 1 mps 690 mmHg 86%
    04:00 +20°C° 0 mm 1 mps 690 mmHg 88%
    05:00 +20°C° 0 mm 1 mps 690 mmHg 87%
    06:00 +21°C° 0 mm 1 mps 690 mmHg 87%
    07:00 +21°C° 0 mm 1 mps 691 mmHg 86%
    08:00 +24°C° 0 mm 1 mps 691 mmHg 74%
    09:00 +27°C° 0 mm 1 mps 692 mmHg 63%
    10:00 +30°C° 0 mm 1 mps 693 mmHg 51%
    11:00 +31°C° 0 mm 1 mps 692 mmHg 47%
    12:00 +32°C° 0 mm 1 mps 692 mmHg 43%
    13:00 +34°C° 0 mm 1 mps 691 mmHg 39%
    14:00 +33°C° 0 mm 1 mps 691 mmHg 41%
    15:00 +32°C° 0 mm 1 mps 690 mmHg 43%
    16:00 +30°C° 0 mm 0 mps 689 mmHg 46%
    17:00 +28°C° 0 mm 0 mps 690 mmHg 51%
    18:00 +26°C° 0 mm 0 mps 690 mmHg 57%
    19:00 +23°C° 0 mm 0 mps 690 mmHg 63%
    20:00 +23°C° 0 mm 0 mps 690 mmHg 67%
    21:00 +22°C° 0 mm 0 mps 691 mmHg 72%
    22:00 +21°C° 0 mm 0 mps 691 mmHg 76%
    23:00 +20°C° 0 mm 0 mps 691 mmHg 78%

    26 May, Saturday

    Time Temperature Precipitation Wind Pressure Humidity
    00:00 +20°C° 0 mm 0 mps 691 mmHg 81%
    01:00 +21°C° 0 mm 1 mps 691 mmHg 83%
    02:00 +21°C° 0 mm 1 mps 690 mmHg 86%
    03:00 +21°C° 0 mm 1 mps 690 mmHg 88%
    04:00 +20°C° 0 mm 1 mps 690 mmHg 90%
    05:00 +20°C° 0 mm 1 mps 690 mmHg 89%
    06:00 +21°C° 0 mm 1 mps 691 mmHg 88%
    07:00 +21°C° 0 mm 1 mps 691 mmHg 87%
    08:00 +24°C° 0 mm 1 mps 692 mmHg 75%
    09:00 +27°C° 0 mm 1 mps 692 mmHg 63%
    10:00 +29°C° 0 mm 2 mps 693 mmHg 52%
    11:00 +31°C° 0 mm 2 mps 692 mmHg 47%
    12:00 +32°C° 0 mm 2 mps 691 mmHg 43%
    13:00 +33°C° 0 mm 1 mps 691 mmHg 39%
    14:00 +32°C° 0 mm 1 mps 690 mmHg 41%
    15:00 +32°C° 0 mm 1 mps 690 mmHg 44%
    16:00 +31°C° 0 mm 1 mps 689 mmHg 47%
    17:00 +29°C° 0 mm 1 mps 690 mmHg 51%
    18:00 +28°C° 0 mm 1 mps 690 mmHg 54%
    19:00 +26°C° 0 mm 1 mps 691 mmHg 58%
    20:00 +26°C° 0 mm 1 mps 691 mmHg 61%
    21:00 +23°C° 0 mm 0 mps 692 mmHg 64%
    22:00 +22°C° 0 mm 0 mps 692 mmHg 67%
    23:00 +22°C° 0 mm 0 mps 692 mmHg 70%

    27 May, Sunday

    Time Temperature Precipitation Wind Pressure Humidity
    00:00 +21°C° 0 mm 0 mps 692 mmHg 73%
    01:00 +21°C° 0 mm 0 mps 691 mmHg 76%
    02:00 +20°C° 0 mm 0 mps 691 mmHg 80%
    03:00 +19°C° 0 mm 0 mps 691 mmHg 83%
    04:00 +19°C° 0 mm 0 mps 691 mmHg 86%
    05:00 +19°C° 0 mm 0 mps 691 mmHg 84%
    06:00 +20°C° 0 mm 0 mps 692 mmHg 83%
    07:00 +20°C° 0 mm 0 mps 692 mmHg 82%
    08:00 +23°C° 0 mm 0 mps 693 mmHg 71%
    09:00 +28°C° 0 mm 1 mps 693 mmHg 59%
    10:00 +31°C° 0 mm 1 mps 694 mmHg 48%
    11:00 +32°C° 0 mm 1 mps 693 mmHg 44%
    12:00 +33°C° 0 mm 1 mps 693 mmHg 40%
    13:00 +34°C° 0 mm 1 mps 692 mmHg 35%
    14:00 +33°C° 0 mm 1 mps 691 mmHg 39%
    15:00 +32°C° 0 mm 1 mps 691 mmHg 42%
    16:00 +29°C° 0 mm 0 mps 690 mmHg 45%
    17:00 +27°C° 0 mm 0 mps 691 mmHg 48%
    18:00 +26°C° 0 mm 0 mps 691 mmHg 50%
    19:00 +25°C° 0 mm 0 mps 692 mmHg 53%
    20:00 +24°C° 0 mm 0 mps 692 mmHg 56%
    21:00 +23°C° 0 mm 0 mps 692 mmHg 59%
    22:00 +23°C° 0 mm 0 mps 693 mmHg 62%
    23:00 +24°C° 0 mm 1 mps 693 mmHg 66%

    28 May, Monday

    Time Temperature Precipitation Wind Pressure Humidity
    00:00 +23°C° 0 mm 1 mps 692 mmHg 71%
    01:00 +23°C° 0 mm 1 mps 692 mmHg 75%
    02:00 +22°C° 0 mm 1 mps 692 mmHg 80%
    03:00 +21°C° 0 mm 1 mps 692 mmHg 84%
    04:00 +21°C° 0 mm 1 mps 692 mmHg 89%
    05:00 +21°C° 0 mm 1 mps 692 mmHg 89%
    06:00 +21°C° 0 mm 1 mps 693 mmHg 89%
    07:00 +21°C° 0 mm 1 mps 693 mmHg 89%
    08:00 +24°C° 0 mm 1 mps 694 mmHg 78%
    09:00 +26°C° 0 mm 1 mps 694 mmHg 66%
    10:00 +29°C° 0 mm 2 mps 695 mmHg 55%
    11:00 +30°C° 0 mm 2 mps 694 mmHg 49%
    12:00 +31°C° 0 mm 1 mps 693 mmHg 44%
    13:00 +33°C° 0 mm 1 mps 693 mmHg 38%
    14:00 +32°C° 0 mm 1 mps 692 mmHg 41%
    15:00 +31°C° 0 mm 1 mps 692 mmHg 44%
    16:00 +31°C° 0 mm 1 mps 691 mmHg 47%
    17:00 +29°C° 0 mm 1 mps 692 mmHg 53%
    18:00 +27°C° 0 mm 1 mps 692 mmHg 58%
    19:00 +24°C° 0 mm 0 mps 692 mmHg 63%
    20:00 +23°C° 0 mm 0 mps 692 mmHg 68%
    21:00 +22°C° 0 mm 0 mps 693 mmHg 72%
    22:00 +21°C° 0 mm 0 mps 693 mmHg 77%
    23:00 +22°C° 0 mm 1 mps 693 mmHg 81%
    Show more